Regional Weather Roundup
Issued by NWS

Home | Current Version | Previous Version | Graphics & Text | Print | Product List | Glossary On
Versions: 1 2 3 4 5 6 7 8 9 10 11 12 13 14 15 16 17 18 19 20 21 22 23 24 25 26 27 28 29 30 31 32 33 34 35 36 37 38 39 40 41 42 43 44 45 46 47 48 49 50
000
ASUS43 KIND 151359
RWRIN

WEATHER ROUNDUP FOR INDIANA
NATIONAL WEATHER SERVICE INDIANAPOLIS IN
1000 AM EDT TUE APR 15 2014

NOTE: "FAIR" INDICATES FEW OR NO CLOUDS BELOW 12,000 FEET WITH NO
SIGNIFICANT WEATHER AND/OR OBSTRUCTIONS TO VISIBILITY.

* - STATION DOES NOT REPORT WEATHER SUCH AS PRECIPITATION OR FOG.

+ - STATION NOT QUALITY CONTROLLED BY THE NATIONAL WEATHER SERVICE.
    USE DATA WITH CAUTION...ESPECIALLY DEWPOINT AND RELATIVE
    HUMIDITY OBSERVATIONS.

INZ001>003-010>013-019-020-151500-
NORTHWEST INDIANA

CITY           SKY/WX    TMP DP  RH WIND       PRES   REMARKS
GARY /AIRPORT/ PTSUNNY   30  18  59 NW12G17   30.10R WCI  21
VALPARAISO     MIX PCPN  28  14  55 NW14G26   30.08R WCI  17

$$

LMZ046-743>745-151500-
SOUTHERN LAKE MICHIGAN

STATION/POSITION TIME  TEMP WIND        PRES
                       AIR  DIR/SP/G
                 (UTC) (F)  (DEG/KT/KT) (MB)
MICHIGAN CITY    1300   29  320/ 22/ 26   N/A

$$

INZ004-005-014>016-021>024-151500-
NORTH CENTRAL INDIANA

CITY           SKY/WX    TMP DP  RH WIND       PRES   REMARKS
ELKHART        PTSUNNY   28  12  50 NW14G23   30.04R WCI  17
GOSHEN         CLOUDY    29  15  56 NW24G30   30.02R WCI  15
PERU/GRISSOM   FLURRIES  30  23  74 NW16G22   30.05R WCI  19
SOUTH BEND     PTSUNNY   30  14  51 N23G31    30.05R WCI  17

$$

INZ006>009-017-018-025>027-151500-
NORTHEAST INDIANA

CITY           SKY/WX    TMP DP  RH WIND       PRES   REMARKS
ANGOLA *+      CLOUDY    27  18  69 NW18      29.98R WCI  13
FORT WAYNE     CLOUDY    29  17  61 NW17G25   30.02R WCI  17

$$

INZ028-029-035-036-043>045-051>053-151500-
WEST CENTRAL INDIANA

CITY           SKY/WX    TMP DP  RH WIND       PRES   REMARKS
GREENCASTLE +  MOSUNNY   32  23  69 N13G18    30.09R WCI  22
LAFAYETTE      PTSUNNY   30  24  78 NW13      30.10R WCI  20
TERRE HAUTE    SUNNY     34  22  61 N15G22    30.11R WCI  24

$$

INZ030>032-037>040-046>048-054>057-064-065-151500-
CENTRAL INDIANA

CITY           SKY/WX    TMP DP  RH WIND       PRES   REMARKS
ANDERSON       PTSUNNY   30  19  64 NW17G23   30.05R WCI  18
COLUMBUS       LGT SNOW  30  28  93 N12       30.07R FOG     WCI  21
INDIANAPOLIS   PTSUNNY   31  24  75 NW15      30.07R WCI  20
-EAGLE CREEK   CLOUDY    31  22  69 N16G22    30.06R WCI  20
KOKOMO *+      PTSUNNY   30  21  69 N18       30.05R WCI  18
MT COMFORT *+  PTSUNNY   32  25  74 N12       30.05R WCI  23
SHELBYVILLE    PTSUNNY   35  25  66 N15       30.05R WCI  25

$$

INZ033-034-041-042-049-050-058-059-151500-
EAST CENTRAL INDIANA

CITY           SKY/WX    TMP DP  RH WIND       PRES   REMARKS
MUNCIE         MOSUNNY   30  20  66 NW17      30.03R WCI  18

$$

INZ060-061-067>069-081>083-085>088-151500-
SOUTHWEST INDIANA

CITY           SKY/WX    TMP DP  RH WIND       PRES   REMARKS
EVANSVILLE     MOSUNNY   37  24  59 N17G26    30.14R
HUNTINGBURG *+ MOSUNNY   36  25  64 N14G24    30.11R

$$

INZ062-063-066-070>080-084-089>092-151500-
SOUTH CENTRAL AND SOUTHEAST INDIANA

CITY           SKY/WX    TMP DP  RH WIND       PRES   REMARKS
BLOOMINGTON    PTSUNNY   35  24  64 NW10G21   30.07R WCI  27

$$




USA.gov is the U.S. government's official web portal to all federal, state and local government web resources and services.